sat.trackr.live / text

‹ back to catalog

STARLINK-37403

NORAD 68788 · 2026-086Y

PAYLOAD ACTIVE UNKNOWN

§ Identity

Operator
Country
US
Launch date
2026-04-19
Launch site
AFWTR
Launch vehicle
Mass (kg)
RCS (m²)

Purposes: comms

External: N2YO · Heavens-Above · Gunter

§ Orbital elements

Epoch: 2026-09-19T22:36:46.941408Z

Period
93.91 min
Inclination
97.2851°
Eccentricity
0.0001136
Mean motion
15.33456867 rev/d
Perigee alt
464.7 km
Apogee alt
466.3 km
Semi-major
6,843.6 km
B*
3.3552e-4
RAAN
298.4433°
Arg perigee
102.7374°
Mean anomaly
257.3996°
Rev number
2,360

§ Raw data

STARLINK-374031 68788U 26086Y   26262.94220997  .00010776  00000+0  33552-3 0  99902 68788  97.2851 298.4433 0001136 102.7374 257.3996 15.33456867 23609

JSON: /api/v1/satellites/68788 · /tle

For live sub-satellite position, see the globe view (requires WebGL).

§ Visibility from observer

Set your observer location to see the next 7 days of passes ≥ 10°. The values pass through the URL so the page stays shareable.

No JS? Fill the form by hand. The geolocation button needs JavaScript.